This demonstration page uses our WeatherBlox Daily Observations layout. Learn more.

Left ArrowRight Arrow

39.12711, -84.51439

Hourly Observations for October 17, 2020

Temp ( °F °C ) Dew Point ( °F °C ) Humidity (%) Winds ( mph kmh ) Pressure ( in mb ) Visibility ( mi km ) Precip ( " mm )
12:53 am 00:53 Clear 35 1.7 33 0.6 93 93 Calm 30.27 1025 10 16 0.00 0.00
1:53 am 01:53 Clear 34 1.1 32 0 92 92 Calm 30.27 1025 10 16 0.00 0.00
2:53 am 02:53 Clear 34 1.1 32 0 92 92 Calm 30.29 1026 10 16 0.00 0.00
3:53 am 03:53 Clear 32 0 30 -1.1 92 92 ENE 3 6 30.30 1026 9 14 0.00 0.00
4:53 am 04:53 Clear 31 -0.6 29 -1.7 92 92 Calm 30.31 1026 9 14 0.00 0.00
5:53 am 05:53 Clear 30 -1.1 28 -2.2 92 92 Calm 30.33 1027 9 14 0.00 0.00
6:53 am 06:53 Clear 31 -0.6 29 -1.7 92 92 E 3 6 30.34 1027 10 16 0.00 0.00
7:53 am 07:53 Sunny 32 0 30 -1.1 92 92 Calm 30.35 1028 10 16 0.00 0.00
8:53 am 08:53 Sunny 34 1.1 32 0 92 92 NE 3 6 30.37 1028 10 16 0.00 0.00
9:53 am 09:53 Sunny 41 5 35 1.7 79 79 Calm 30.37 1029 10 16 0.00 0.00
10:53 am 10:53 Sunny 49 9.4 35 1.7 59 59 Calm 30.37 1028 10 16 0.00 0.00
11:53 am 11:53 Sunny 56 13.3 33 0.6 42 42 VRB 5 7 30.37 1028 10 16 0.00 0.00
12:53 pm 12:53 Sunny 61 16.1 29 -1.7 30 30 SSW 12 19 30.35 1028 10 16 0.00 0.00
1:53 pm 13:53 Sunny 62 16.7 25 -3.9 24 24 Calm 30.31 1026 10 16 0.00 0.00
2:53 pm 14:53 Sunny 61 16.1 25 -3.9 25 25 S 8 13 30.28 1026 10 16 0.00 0.00
3:53 pm 15:53 Sunny 63 17.2 24 -4.4 23 23 SSW 7 11 30.26 1025 10 16 0.00 0.00
4:53 pm 16:53 Sunny 62 16.7 25 -3.9 24 24 S 10 17 30.25 1024 10 16 0.00 0.00
5:53 pm 17:53 Sunny 60 15.6 26 -3.3 27 27 S 8 13 30.24 1024 10 16 0.00 0.00
6:53 pm 18:53 Sunny 57 13.9 27 -2.8 32 32 SSE 8 13 30.23 1024 10 16 0.00 0.00
7:53 pm 19:53 Clear 52 11.1 30 -1.1 43 43 SE 5 7 30.22 1023 10 16 0.00 0.00
8:53 pm 20:53 Clear 51 10.6 29 -1.7 43 43 Calm 30.22 1023 10 16 0.00 0.00
9:53 pm 21:53 Clear 45 7.2 36 2.2 71 71 Calm 30.22 1023 10 16 0.00 0.00
10:53 pm 22:53 Clear 49 9.4 31 -0.6 50 50 SW 3 6 30.22 1023 10 16 0.00 0.00
11:53 pm 23:53 Clear 45 7.2 33 0.6 63 63 Calm 30.22 1023 10 16 0.00 0.00

Powered by AerisWeather